[[{"header":{"parameterUnit":"m.s-1","parameterCategory":1,"la1":30.2992,"la2":30.254,"lo1":-89.0895,"lo2":-89.0443,"dy":0.0025,"dx":0.0025,"nx":19,"ny":19,"refTime":"2026-03-16T03:00:00:Z","depth":0,"parameterNumber":2,"parameterNumberName":"U-component_of_WINDS"},"data":[0,0,0,-1.6889,-1.6891,-1.6969,-1.6969,-1.7067,-1.7068,0,0,0,0,0,0,0,0,0,0,0,-1.6866,-1.6867,-1.6889,-1.6891,-1.6969,-1.6969,-1.7067,-1.7068,0,0,0,0,0,0,0,0,0,0,0,-1.6866,-1.6866,-1.6867,-1.6892,-1.6969,-1.6969,-1.7067,-1.7008,0,0,0,0,0,0,0,0,0,0,-1.6933,-1.6911,-1.6866,-1.6867,-1.6892,-1.6969,-1.6969,-1.7006,-1.7012,-1.7031,0,-1.7048,0,-1.706,-1.7074,-1.7075,0,0,0,-1.6891,-1.6906,-1.6927,-1.6867,-1.6893,-1.6969,-1.6934,-1.7009,-1.7016,-1.7039,-1.705,-1.7054,-1.7061,-1.7075,-1.7075,-1.7186,-1.7187,0,0,-1.6887,-1.688,-1.6922,-1.6932,-1.6921,-1.6931,-1.6936,-1.7014,-1.7024,-1.705,-1.7056,-1.7063,-1.7076,-1.7076,-1.7186,-1.7186,0,0,0,-1.6875,-1.6876,-1.6896,-1.6928,-1.6942,-1.6934,-1.6939,-1.7021,-1.7028,-1.7057,-1.7064,-1.7076,-1.7077,-1.7185,-1.7186,-1.7204,0,0,0,-1.6872,-1.6869,-1.6894,-1.689,-1.6941,-1.6983,-1.6945,-1.7022,-1.7031,-1.7064,-1.7076,-1.7078,-1.7185,-1.7185,-1.7202,-1.7213,0,0,0,-1.6861,-1.6868,-1.6879,-1.689,-1.6923,-1.6982,-1.6993,-1.7025,-1.7036,-1.7075,-1.7078,-1.7184,-1.7185,-1.7201,-1.7211,-1.724,0,0,0,-1.6847,-1.6894,-1.6879,-1.6935,-1.6923,-1.6992,-1.6993,-1.7045,-1.708,-1.7077,-1.7185,-1.7186,-1.72,-1.7209,-1.7238,-1.7262,-1.7272,0,0,-1.6902,-1.69,-1.6934,-1.6923,-1.6993,-1.6981,-1.7054,-1.7093,-1.7104,-1.7158,-1.7161,-1.7203,-1.7211,-1.7239,-1.7329,-1.7337,0,0,0,-1.6949,-1.6972,-1.6993,-1.7026,-1.7058,-1.7086,-1.7115,-1.7129,-1.7175,-1.713,-1.7221,-1.7226,-1.7243,-1.7255,-1.7262,-1.7277,-1.7191,-1.7191,-1.7191,-1.7016,-1.7027,-1.7082,-1.7102,-1.7135,-1.7165,-1.7192,-1.7216,-1.7217,-1.7239,-1.7255,-1.7308,-1.7322,-1.7326,-1.7342,-1.7269,-1.7269,-1.7269,-1.7269,-1.7098,-1.7132,-1.7133,-1.7187,-1.7198,-1.7243,-1.7273,-1.7272,-1.7315,-1.7297,-1.7313,-1.7291,-1.7334,-1.7348,-1.727,-1.727,-1.727,-1.727,-1.727,-1.7142,-1.7161,-1.7178,-1.7228,-1.7264,-1.7283,-1.7324,-1.7333,-1.7341,-1.7356,-1.7374,-1.7373,-1.7373,-1.7364,-1.7364,-1.7364,-1.7365,-1.7365,-1.7365,-1.7182,-1.7201,-1.7235,-1.7272,-1.7294,-1.7325,-1.7354,-1.7376,-1.7403,-1.7406,-1.7406,-1.7404,-1.7337,-1.732,-1.7368,-1.7367,-1.7367,-1.7367,-1.7366,-1.7259,-1.7243,-1.7296,-1.7318,-1.7362,-1.7397,-1.7408,-1.7452,-1.7471,-1.7491,-1.7487,-1.7436,-1.7434,-1.7429,-1.7415,-1.7485,-1.7485,-1.7485,-1.7485,-1.7297,-1.7297,-1.7352,-1.7387,-1.7423,-1.7437,-1.7495,-1.7519,-1.754,-1.7552,-1.7544,-1.7525,-1.752,-1.7522,-1.7515,-1.7501,-1.7591,-1.7592,-1.7592,-1.7345,-1.7349,-1.7397,-1.7418,-1.7453,-1.7482,-1.7536,-1.7576,-1.7597,-1.7596,-1.7562,-1.7558,-1.7528,-1.7518,-1.7516,-1.7505,-1.748,0,0]},{"header":{"parameterUnit":"m.s-1","parameterCategory":1,"la1":30.2992,"la2":30.254,"lo1":-89.0895,"lo2":-89.0443,"dy":0.0025,"dx":0.0025,"nx":19,"ny":19,"refTime":"2026-03-16T03:00:00:Z","depth":0,"parameterNumber":3,"parameterNumberName":"V-component_of_WINDS"},"data":[0,0,0,-2.0107,-2.0109,-2.0189,-2.0189,-2.0293,-2.0294,0,0,0,0,0,0,0,0,0,0,0,-2.0085,-2.0085,-2.0107,-2.0109,-2.0189,-2.0189,-2.0293,-2.0294,0,0,0,0,0,0,0,0,0,0,0,-2.0084,-2.0085,-2.0086,-2.0109,-2.0189,-2.0189,-2.0293,-2.0232,0,0,0,0,0,0,0,0,0,0,-2.0154,-2.0135,-2.0085,-2.0086,-2.011,-2.0189,-2.0189,-2.0229,-2.0236,-2.0258,0,-2.0278,0,-2.0288,-2.0301,-2.0302,0,0,0,-2.0108,-2.0129,-2.0149,-2.0086,-2.011,-2.0189,-2.0152,-2.0233,-2.024,-2.0267,-2.028,-2.0284,-2.029,-2.0302,-2.0303,-2.0435,-2.0436,0,0,-2.0103,-2.01,-2.0144,-2.0154,-2.0142,-2.015,-2.0155,-2.0237,-2.0251,-2.028,-2.0286,-2.0292,-2.0303,-2.0304,-2.0434,-2.0435,0,0,0,-2.0091,-2.0097,-2.0115,-2.015,-2.0164,-2.0152,-2.0158,-2.0247,-2.0254,-2.0287,-2.0293,-2.0303,-2.0305,-2.0434,-2.0435,-2.0464,0,0,0,-2.0089,-2.009,-2.0113,-2.0112,-2.0163,-2.0207,-2.0166,-2.0248,-2.0257,-2.0292,-2.0303,-2.0306,-2.0433,-2.0434,-2.0461,-2.0478,0,0,0,-2.0079,-2.0089,-2.0101,-2.0111,-2.0146,-2.0206,-2.0217,-2.025,-2.0261,-2.0302,-2.0306,-2.0432,-2.0434,-2.0459,-2.0474,-2.0511,0,0,0,-2.0068,-2.0126,-2.0101,-2.0169,-2.0145,-2.0223,-2.0216,-2.0275,-2.0314,-2.0304,-2.0433,-2.0434,-2.0458,-2.0472,-2.0508,-2.054,-2.0553,0,0,-2.0139,-2.0135,-2.0175,-2.0155,-2.0236,-2.0211,-2.0297,-2.0336,-2.0344,-2.0404,-2.0407,-2.0462,-2.0474,-2.051,-2.0629,-2.064,0,0,0,-2.0196,-2.0225,-2.0247,-2.0284,-2.0315,-2.0342,-2.0368,-2.0383,-2.0434,-2.0374,-2.0486,-2.0493,-2.0514,-2.0529,-2.0538,-2.0556,-2.0442,-2.0441,-2.0441,-2.0293,-2.0298,-2.0364,-2.038,-2.0415,-2.0441,-2.047,-2.0494,-2.049,-2.0516,-2.0534,-2.0605,-2.0623,-2.063,-2.0648,-2.0552,-2.0552,-2.0552,-2.0552,-2.0398,-2.0438,-2.0431,-2.0492,-2.0498,-2.0549,-2.0576,-2.0571,-2.062,-2.0593,-2.0612,-2.0581,-2.0641,-2.0658,-2.0554,-2.0554,-2.0554,-2.0553,-2.0553,-2.0461,-2.0481,-2.0497,-2.055,-2.059,-2.0604,-2.065,-2.0654,-2.0658,-2.0677,-2.0695,-2.0694,-2.0694,-2.0685,-2.0685,-2.0686,-2.0686,-2.0686,-2.0686,-2.0519,-2.0536,-2.0575,-2.0612,-2.0636,-2.0667,-2.0693,-2.0717,-2.0743,-2.0742,-2.0742,-2.0735,-2.0646,-2.0623,-2.069,-2.0689,-2.0689,-2.0689,-2.0688,-2.0622,-2.0599,-2.0658,-2.0682,-2.0725,-2.0764,-2.0768,-2.0815,-2.0835,-2.0857,-2.0846,-2.078,-2.0776,-2.0769,-2.0749,-2.0845,-2.0845,-2.0845,-2.0845,-2.0674,-2.0672,-2.0733,-2.077,-2.0807,-2.0816,-2.0883,-2.0904,-2.0922,-2.0934,-2.0921,-2.0896,-2.0889,-2.0889,-2.0879,-2.0861,-2.0984,-2.0984,-2.0984,-2.0737,-2.0738,-2.0794,-2.0811,-2.0845,-2.0874,-2.0937,-2.0979,-2.0995,-2.0989,-2.0944,-2.0938,-2.0898,-2.0885,-2.0878,-2.0863,-2.083,0,0]}]]